Theta_e
304 304 304 304 304 305 302 295 285 301 302 286 287 283 286 289 289 292 290 292 294 289 291 291 292 290 295 301 300 294 294 289 283 286 292 296 295 293 293 287 283 285 283 283
305 304 304 304 304 304 298 286 288 298 298 281 283 287 287 289 288 289 288 288 296 296 292 289 294 294 299 301 299 295 294 287 281 283 287 289 291 294 295 291 287 282 280 283
305 304 304 304 304 304 300 289 283 287 290 290 286 284 285 285 291 289 291 288 297 295 293 296 292 294 298 301 300 298 297 289 286 282 286 289 287 291 293 291 283 284 286 288
304 304 304 304 304 304 299 291 285 286 281 284 286 289 288 285 285 290 293 290 294 293 291 292 292 293 296 299 297 295 294 284 288 289 291 290 290 291 292 290 291 287 289 290
304 304 304 303 303 304 295 286 285 285 286 286 285 286 285 285 288 290 288 288 295 296 292 292 291 294 294 294 293 292 293 284 286 280 289 290 287 291 291 292 292 291 290 289
304 303 303 303 302 301 293 292 291 288 286 285 282 284 285 287 290 291 294 292 295 294 295 298 298 298 297 297 294 292 291 286 284 277 282 284 279 287 290 291 293 293 288 293
303 303 302 302 303 301 296 294 292 285 281 284 284 287 288 287 290 289 294 295 296 298 301 299 297 295 296 297 296 297 289 286 285 279 282 274 285 293 293 291 293 294 294 294
303 302 302 301 301 301 296 295 292 287 282 285 285 285 285 287 292 291 292 296 301 301 296 288 285 285 287 286 290 293 293 288 281 279 279 283 285 286 290 289 289 295 294 295
302 302 301 301 301 300 296 295 295 290 285 284 281 281 285 286 288 285 286 291 299 298 293 286 281 279 282 281 284 289 292 292 285 283 274 274 284 289 294 293 281 294 295 295
302 302 301 301 300 300 296 293 295 291 285 285 282 280 283 290 288 285 286 287 290 292 289 286 283 278 283 280 282 283 284 285 282 280 275 280 287 288 294 279 282 290 295 296
300 301 301 300 299 299 296 291 295 291 285 285 284 284 281 287 290 286 287 289 287 287 286 285 284 280 281 279 284 285 283 282 282 278 273 276 289 289 286 289 287 288 291 293
300 300 300 299 299 299 298 290 293 294 287 286 287 285 285 285 285 290 291 288 288 291 286 285 285 279 280 281 281 288 281 286 284 285 282 288 291 290 292 291 290 290 290 290
300 299 299 299 298 298 296 290 290 291 285 286 286 283 286 287 287 289 290 289 294 290 292 287 286 279 283 279 281 285 284 289 283 283 285 286 288 288 290 291 290 292 291 291
299 299 298 298 297 296 295 288 290 290 286 283 284 289 285 287 289 293 294 292 293 293 290 286 286 282 284 283 283 283 284 287 283 281 282 285 286 287 288 289 289 289 289 289
298 297 297 296 296 296 292 290 290 290 286 282 283 286 287 288 290 292 294 293 291 287 286 285 283 283 284 280 284 279 286 285 285 281 287 288 290 288 289 287 286 285 285 284
298 297 297 296 295 293 291 285 290 290 287 284 279 285 284 285 286 288 288 288 288 287 285 283 282 284 285 283 282 282 286 288 288 288 290 290 289 288 288 286 284 284 284 284
296 295 295 296 295 290 284 280 286 291 288 285 281 281 284 284 285 284 285 287 285 286 285 283 283 283 285 285 276 277 277 284 284 284 284 284 284 284 284 284 281 280 279 279
294 294 294 294 294 292 285 288 290 289 285 285 280 280 282 284 281 280 284 283 284 282 283 284 282 283 284 275 275 274 273 276 276 279 282 284 282 281 279 280 279 277 276 276
294 293 293 289 284 279 282 290 290 288 284 277 276 272 273 282 281 282 282 284 278 283 280 280 282 276 267 267 268 268 268 270 271 275 277 277 278 277 277 277 276 275 273 272
293 287 282 277 280 289 287 281 281 277 279 279 274 275 275 279 280 277 280 281 277 275 276 280 273 265 267 266 265 264 265 267 268 273 273 272 273 274 272 271 273 273 271 269
282 278 275 281 287 280 276 270 271 271 271 272 273 275 274 280 276 276 278 276 276 274 274 276 274 267 264 264 263 262 263 265 265 268 269 271 272 271 269 267 266 266 265 265
279 279 280 278 274 271 268 263 267 268 265 270 270 273 275 278 278 278 276 275 276 271 275 276 269 263 261 260 260 260 261 262 262 264 264 264 265 266 265 264 263 263 263 265
281 274 267 269 266 262 261 260 263 265 265 268 269 272 274 276 278 275 275 271 270 274 273 266 262 261 259 258 258 259 259 260 261 261 262 261 260 261 262 261 263 262 261 261
269 265 260 261 257 258 257 259 260 264 265 265 265 271 272 273 271 272 269 269 269 270 269 264 260 257 257 257 257 256 256 258 258 259 260 260 260 258 259 259 260 261 260 260
262 263 257 257 260 260 259 260 261 265 263 264 268 271 275 269 268 269 268 268 266 265 263 260 257 256 256 255 255 254 255 256 256 257 258 258 260 259 257 258 258 259 260 259
259 255 261 260 260 261 260 260 260 263 261 263 266 268 267 265 265 264 260 263 261 260 257 257 258 255 254 254 254 254 255 255 256 256 257 257 257 256 257 258 257 257 256 257
256 254 256 255 257 257 258 257 258 261 260 263 265 264 264 267 265 261 257 256 255 255 255 256 254 253 252 253 254 254 254 254 255 255 255 256 257 258 259 258 256 256 256 256
Wind_Speed
24 25 23 21 20 20 10 5 5 8 11 5 3 11 9 14 14 9 7 11 17 15 22 23 14 22 19 25 26 21 3 8 9 4 1 7 8 12 6 6 6 3 3 7
23 24 22 21 21 18 5 6 3 2 3 8 8 5 16 12 10 10 6 9 18 17 20 13 13 17 9 23 22 22 11 8 11 3 5 4 17 16 16 5 4 7 6 6
22 23 21 20 21 19 4 4 5 2 3 0 9 8 9 14 13 20 16 14 19 23 25 10 20 17 14 21 20 14 8 8 6 15 15 10 9 14 13 5 4 5 13 8
23 21 20 18 18 21 2 3 4 2 7 9 9 9 6 20 11 13 13 11 25 27 17 13 18 13 17 20 15 8 7 6 5 5 16 17 25 27 23 20 24 13 20 19
22 20 20 17 17 18 1 5 4 1 2 5 13 14 11 17 17 8 11 20 26 26 16 11 30 24 24 31 15 16 5 5 6 6 6 17 21 20 23 29 28 16 6 11
22 19 16 16 17 12 2 2 1 2 6 5 6 7 11 16 15 12 21 20 27 30 31 18 14 9 7 19 23 15 8 7 5 2 3 9 2 28 27 25 21 24 14 13
21 18 14 13 18 11 2 2 3 3 4 9 9 7 6 18 22 19 17 21 24 13 20 20 15 11 7 24 15 13 9 6 5 3 3 3 8 21 20 23 23 25 19 4
18 15 13 13 13 13 2 3 3 3 4 4 5 10 10 12 14 20 11 20 16 26 26 14 8 3 7 6 5 9 9 7 6 7 6 4 4 6 21 18 17 21 25 15
17 14 12 12 11 11 3 2 0 1 2 4 2 4 7 7 10 2 5 5 10 21 14 5 6 5 6 7 5 6 5 7 5 4 7 12 1 9 15 7 7 15 15 18
12 12 11 8 7 8 3 2 2 2 2 3 3 6 5 5 5 3 3 1 5 4 8 6 6 4 7 10 16 15 9 8 13 6 5 8 7 7 14 9 10 12 19 15
11 11 8 5 5 9 2 3 3 2 3 2 5 3 4 4 6 8 10 7 2 3 5 4 4 5 6 6 8 18 11 13 9 4 3 12 8 9 17 7 2 6 6 8
11 9 6 4 2 6 5 2 2 3 2 2 4 4 4 4 6 3 13 3 7 8 5 3 5 4 5 8 10 9 5 10 11 13 7 4 16 11 5 5 7 5 7 5
11 11 9 6 8 4 3 2 1 1 1 2 0 3 3 6 5 7 3 1 3 1 1 6 4 6 4 5 4 12 2 5 6 6 5 8 10 3 6 4 7 7 6 8
14 15 16 15 15 13 5 2 3 1 0 2 1 1 2 11 10 7 3 4 3 3 1 3 4 6 1 4 7 6 5 7 7 1 1 6 3 5 8 6 8 9 8 6
11 9 8 5 6 11 6 2 4 3 2 2 2 4 2 11 10 7 6 2 2 2 3 5 3 2 4 1 4 3 3 6 9 7 11 7 12 10 10 9 7 8 13 8
14 14 12 6 1 3 1 2 1 8 3 2 2 1 5 7 8 12 11 6 5 2 3 3 2 2 2 4 4 4 7 6 4 1 6 4 6 10 7 8 9 6 9 9
14 12 12 16 12 4 4 3 4 14 2 0 1 1 3 6 4 4 4 5 3 3 3 3 1 2 4 3 4 8 12 9 8 9 4 8 3 7 8 14 13 13 13 10
10 10 10 9 8 6 3 1 14 7 1 2 3 2 3 8 4 3 3 3 3 6 3 2 3 2 2 5 7 10 13 10 14 15 9 5 13 13 11 13 14 15 12 10
12 10 4 2 6 4 4 21 13 2 4 3 3 5 4 7 4 4 3 3 4 3 3 3 2 4 6 6 8 9 13 10 11 12 8 9 12 12 10 12 11 16 11 10
9 7 5 4 2 13 11 6 4 6 5 5 3 3 4 5 5 4 2 3 3 3 3 2 5 4 8 10 9 9 11 12 14 4 6 6 8 8 8 10 8 10 8 8
4 4 1 3 11 3 5 5 5 4 5 5 3 3 4 4 4 4 4 2 2 3 1 1 3 4 4 10 10 10 11 11 11 8 7 11 10 10 12 11 11 11 9 6
1 1 2 3 6 5 7 2 4 7 3 5 4 4 3 3 2 2 4 2 1 4 3 0 3 3 7 9 10 11 11 11 11 11 11 12 14 12 11 10 10 9 7 6
2 5 7 6 6 12 7 6 5 4 7 6 6 3 1 3 2 3 3 4 3 2 3 4 3 4 7 8 8 7 10 9 10 11 9 11 13 13 11 10 8 8 8 6
6 6 9 5 6 4 2 3 3 3 4 7 6 5 2 2 4 2 4 1 1 2 3 4 3 6 7 7 8 7 9 10 9 9 10 10 10 11 10 10 8 6 8 6
6 6 6 5 2 1 2 2 3 2 6 5 4 3 1 3 4 3 1 4 5 5 3 3 4 6 6 7 7 8 8 9 8 8 8 7 7 8 9 8 7 7 6 6
6 11 3 4 2 3 4 4 3 4 7 4 3 3 4 5 2 5 4 3 4 2 3 2 4 5 6 6 6 6 6 6 7 6 6 6 7 7 5 6 7 6 6 5
7 4 1 2 1 1 3 3 5 8 5 3 2 6 2 2 4 5 6 4 1 2 1 2 4 4 4 5 6 6 7 7 7 6 6 7 5 3 4 6 6 5 4 3
Wind_Direction
151 151 151 148 147 152 142 139 162 149 143 154 202 203 205 214 237 227 266 303 179 162 182 180 170 180 181 183 179 169 107 106 146 155 341 179 186 171 168 165 209 238 125 261
158 152 153 152 149 155 131 132 144 148 196 191 185 226 226 236 208 219 212 272 210 171 184 168 189 172 151 176 177 160 158 142 125 101 348 210 204 178 197 102 77 199 141 259
159 154 155 154 163 173 131 132 148 156 239 170 192 186 220 227 233 236 227 242 251 162 181 188 191 157 173 175 176 123 108 157 161 193 199 120 187 191 191 168 155 154 223 179
155 154 157 156 169 178 147 152 196 183 178 201 206 202 228 226 236 212 186 248 224 172 165 165 177 135 158 184 145 142 123 130 177 164 159 166 178 182 183 197 218 187 229 224
153 154 153 154 162 160 83 144 170 149 144 131 198 222 217 235 218 216 231 220 191 185 151 177 158 157 163 178 169 164 158 135 114 1 162 164 183 183 191 202 214 227 242 270
153 152 155 161 162 157 139 88 128 178 164 171 188 214 219 227 197 223 232 210 206 185 181 172 162 117 121 166 171 169 138 127 116 159 76 87 320 200 199 209 205 215 210 222
147 146 154 167 172 190 104 161 141 165 233 203 206 210 233 228 205 214 217 219 210 174 108 103 65 47 103 154 163 168 143 95 79 136 112 195 249 177 204 210 208 217 234 202
136 137 142 151 168 188 199 148 188 177 259 217 248 250 259 268 216 216 236 213 199 135 118 100 99 38 74 2 22 145 136 99 106 148 211 280 208 210 189 181 222 217 224 225
124 126 127 126 128 145 114 144 268 168 273 218 53 256 227 242 192 229 298 308 142 134 131 118 132 154 123 150 119 9 116 121 110 148 156 210 218 174 176 99 267 203 206 213
114 122 116 112 147 172 130 110 211 237 232 180 206 226 252 149 148 151 143 139 37 356 152 129 144 114 151 156 161 167 154 176 189 176 207 263 201 165 119 143 234 197 202 204
114 110 107 113 134 148 142 120 199 233 200 195 214 250 269 280 173 169 164 127 320 4 100 119 139 130 197 105 153 169 165 162 186 127 147 255 170 141 153 198 108 161 129 158
111 101 94 77 153 182 192 144 174 272 139 282 193 223 226 253 308 161 188 120 151 166 137 162 130 131 143 145 155 182 161 196 169 189 192 212 175 169 158 139 142 183 128 131
92 79 70 92 72 137 179 126 237 174 161 240 318 304 280 288 283 301 175 245 152 95 154 153 140 122 136 144 206 154 212 152 143 103 209 168 189 48 136 156 155 139 124 138
92 83 78 74 75 75 85 90 316 54 163 277 195 230 296 294 296 212 233 294 359 79 103 106 113 108 164 181 154 131 188 118 148 98 8 63 135 183 164 118 109 109 90 103
83 62 55 60 85 92 84 68 60 40 303 333 311 279 331 344 351 72 68 27 62 18 44 42 81 90 114 343 83 119 186 166 179 213 178 162 199 162 145 140 144 139 124 98
73 64 50 28 224 171 105 356 5 11 337 320 351 283 343 343 351 57 49 20 46 64 85 78 75 288 68 96 81 6 8 12 9 356 147 80 116 122 113 122 132 121 96 98
64 49 40 49 59 76 79 152 318 336 301 343 326 348 22 332 350 42 26 32 57 54 74 52 71 29 34 74 105 5 355 12 30 18 19 64 142 158 119 111 104 91 81 78
34 35 27 41 69 86 32 302 341 342 347 44 349 338 46 4 8 52 357 57 36 25 74 35 40 22 45 78 37 14 360 334 24 359 357 92 102 94 95 109 114 101 102 102
359 356 8 57 32 14 280 314 320 327 56 80 40 357 357 341 20 17 47 40 66 34 55 52 14 6 50 19 358 8 0 0 330 321 33 52 94 108 105 109 102 111 105 98
354 29 38 10 285 305 311 3 15 19 9 21 45 313 357 341 339 34 35 37 45 68 32 318 59 78 80 31 22 5 353 353 346 3 39 25 80 81 78 64 69 96 101 104
32 27 23 254 314 10 28 31 37 329 45 8 335 10 325 9 11 23 8 61 341 93 42 343 103 84 54 7 17 10 4 4 8 14 34 51 72 89 88 70 63 64 61 65
203 251 307 346 28 17 69 1 347 35 23 334 329 332 350 321 311 18 358 55 325 76 329 134 87 73 19 8 1 10 3 8 23 32 46 51 60 64 77 70 69 68 69 53
358 43 42 30 323 39 42 353 357 19 348 3 339 319 19 321 353 65 35 43 43 275 24 64 41 50 21 6 358 356 7 14 26 39 45 60 68 59 67 78 65 77 77 40
63 46 27 55 1 41 18 332 328 337 302 322 306 279 17 328 34 309 78 253 236 78 58 52 42 14 7 10 7 7 3 7 18 30 39 54 65 70 63 60 50 72 71 58
57 43 49 46 250 224 278 250 262 338 307 300 290 270 8 1 57 24 81 32 62 39 48 40 16 11 6 16 8 8 2 359 11 12 29 39 52 72 74 55 54 54 59 59
59 34 61 349 331 359 358 346 312 4 323 277 249 309 50 41 9 42 29 24 40 34 28 22 17 38 23 11 3 4 351 354 0 8 11 29 36 43 52 56 43 37 34 36
48 43 75 316 297 319 323 317 319 318 297 21 343 45 339 297 41 46 16 48 6 4 19 41 45 43 23 356 2 8 360 359 359 360 14 19 12 28 61 54 26 15 27 14